BLUEBIRD A

Last updated on Fri Sep 13 2024 00:02:05 GMT+0000 (Coordinated Universal Time)

1 61045U 24163A 24256.78880590 -.00000318 00000+0 00000+0 0 9997 2 61045 52.9799 19.9259 0012011 320.6768 193.8214 15.17000407 60
UTC large
Height (km)
Speed (km/s)
/
Latitude / Longitude
Inclination (degrees)
Orbital Period (minutes)
Azimuth
Elevation
Range (km)
Doppler Factor

Next 0 passes for location: London (51.5072 / 0.1276)

Sorry there are no passes over London.